Time,TemperatureF,DewpointF,PressureIn,WindDirection,WindDirectionDegrees,WindSpeedMPH,WindSpeedGustMPH,Humidity,HourlyPrecipIn,Conditions,Clouds,dailyrainin,SoftwareType,DateUTC
2013-03-13 00:31:00,25.8,23.0,29.90,WSW,254,4.0,-999.0,90,-99.99,,,0.00,weatherlink.com 1.10,2013-03-13 04:31:00,
2013-03-13 01:01:00,26.2,24.0,29.90,WSW,254,5.0,-999.0,91,-99.99,,,0.00,weatherlink.com 1.10,2013-03-13 05:01:00,
2013-03-13 02:01:00,26.8,25.0,29.90,WSW,254,8.0,-999.0,91,-99.99,,,0.00,weatherlink.com 1.10,2013-03-13 06:01:00,
2013-03-13 02:31:00,24.7,22.0,29.92,WSW,254,13.0,-999.0,88,-99.99,,,0.00,weatherlink.com 1.10,2013-03-13 06:31:00,
2013-03-13 02:46:00,24.4,21.0,29.92,WSW,254,6.0,-999.0,88,-99.99,,,0.00,weatherlink.com 1.10,2013-03-13 06:46:00,
2013-03-13 03:01:00,24.2,21.0,29.92,WSW,254,9.0,-999.0,88,-99.99,,,0.00,weatherlink.com 1.10,2013-03-13 07:01:00,
2013-03-13 03:31:00,23.9,21.0,29.93,WSW,254,9.0,-999.0,87,-99.99,,,0.00,weatherlink.com 1.10,2013-03-13 07:31:00,
2013-03-13 03:46:00,23.7,20.0,29.93,WSW,254,9.0,-999.0,87,-99.99,,,0.00,weatherlink.com 1.10,2013-03-13 07:46:00,
2013-03-13 04:16:00,23.3,18.0,29.93,WSW,254,14.0,-999.0,81,-99.99,,,0.00,weatherlink.com 1.10,2013-03-13 08:16:00,
2013-03-13 04:31:00,22.7,17.0,29.93,WSW,254,7.0,-999.0,78,-99.99,,,0.00,weatherlink.com 1.10,2013-03-13 08:31:00,
2013-03-13 08:31:00,23.3,21.0,30.00,WSW,254,14.0,-999.0,89,-99.99,,,0.00,weatherlink.com 1.10,2013-03-13 12:31:00,
2013-03-13 09:16:00,23.6,21.0,30.02,WSW,254,11.0,-999.0,88,-99.99,,,0.00,weatherlink.com 1.10,2013-03-13 13:16:00,
2013-03-13 10:01:00,24.3,20.0,30.04,WSW,254,14.0,-999.0,84,-99.99,,,0.00,weatherlink.com 1.10,2013-03-13 14:01:00,
2013-03-13 10:31:00,24.6,21.0,30.06,WSW,254,12.0,-999.0,85,-99.99,,,0.00,weatherlink.com 1.10,2013-03-13 14:31:00,
2013-03-13 12:01:00,25.7,22.0,30.09,West,267,17.0,-999.0,84,-99.99,,,0.00,weatherlink.com 1.10,2013-03-13 16:01:00,
2013-03-13 12:16:00,26.0,21.0,30.10,NW,316,15.0,-999.0,80,-99.99,,,0.00,weatherlink.com 1.10,2013-03-13 16:16:00,
2013-03-13 13:01:00,27.5,20.0,30.11,WNW,297,17.0,-999.0,74,-99.99,,,0.00,weatherlink.com 1.10,2013-03-13 17:01:00,
2013-03-13 13:16:00,27.8,21.0,30.11,WNW,301,9.0,-999.0,74,-99.99,,,0.00,weatherlink.com 1.10,2013-03-13 17:16:00,
2013-03-13 13:46:00,28.1,20.0,30.13,WNW,298,14.0,-999.0,72,-99.99,,,0.00,weatherlink.com 1.10,2013-03-13 17:46:00,
2013-03-13 14:31:00,28.4,19.0,30.14,NW,305,16.0,-999.0,68,-99.99,,,0.00,weatherlink.com 1.10,2013-03-13 18:31:00,
2013-03-13 14:46:00,28.9,20.0,30.14,NW,309,13.0,-999.0,68,-99.99,,,0.00,weatherlink.com 1.10,2013-03-13 18:46:00,
2013-03-13 15:46:00,29.4,20.0,30.15,NW,323,14.0,-999.0,69,-99.99,,,0.00,weatherlink.com 1.10,2013-03-13 19:46:00,
2013-03-13 16:31:00,29.7,20.0,30.17,NW,309,11.0,-999.0,66,-99.99,,,0.00,weatherlink.com 1.10,2013-03-13 20:31:00,
2013-03-13 16:46:00,30.0,19.0,30.18,NW,315,15.0,-999.0,63,-99.99,,,0.00,weatherlink.com 1.10,2013-03-13 20:46:00,
2013-03-13 17:01:00,30.5,18.0,30.18,WNW,290,10.0,-999.0,61,-99.99,,,0.00,weatherlink.com 1.10,2013-03-13 21:01:00,
2013-03-13 17:46:00,30.5,19.0,30.20,WNW,302,7.0,-999.0,63,-99.99,,,0.00,weatherlink.com 1.10,2013-03-13 21:46:00,
2013-03-13 18:16:00,29.5,16.0,30.20,NW,306,13.0,-999.0,58,-99.99,,,0.00,weatherlink.com 1.10,2013-03-13 22:16:00,
2013-03-13 18:46:00,29.2,15.0,30.21,WNW,297,13.0,-999.0,55,-99.99,,,0.00,weatherlink.com 1.10,2013-03-13 22:46:00,
2013-03-13 19:01:00,29.1,15.0,30.22,NW,306,8.0,-999.0,57,-99.99,,,0.00,weatherlink.com 1.10,2013-03-13 23:01:00,
2013-03-13 19:16:00,28.8,15.0,30.22,WNW,294,13.0,-999.0,57,-99.99,,,0.00,weatherlink.com 1.10,2013-03-13 23:16:00,
2013-03-13 19:31:00,28.4,15.0,30.23,WNW,290,9.0,-999.0,57,-99.99,,,0.00,weatherlink.com 1.10,2013-03-13 23:31:00,
2013-03-13 19:46:00,28.0,14.0,30.23,WNW,302,7.0,-999.0,56,-99.99,,,0.00,weatherlink.com 1.10,2013-03-13 23:46:00,
2013-03-13 20:01:00,27.5,15.0,30.24,WNW,292,8.0,-999.0,59,-99.99,,,0.00,weatherlink.com 1.10,2013-03-14 00:01:00,
2013-03-13 20:16:00,27.5,14.0,30.24,WNW,290,8.0,-999.0,56,-99.99,,,0.00,weatherlink.com 1.10,2013-03-14 00:16:00,
2013-03-13 21:01:00,26.0,14.0,30.25,West,278,5.0,-999.0,60,-99.99,,,0.00,weatherlink.com 1.10,2013-03-14 01:01:00,
2013-03-13 21:16:00,25.7,14.0,30.25,West,277,5.0,-999.0,62,-99.99,,,0.00,weatherlink.com 1.10,2013-03-14 01:16:00,
2013-03-13 21:31:00,25.8,15.0,30.25,West,274,5.0,-999.0,63,-99.99,,,0.00,weatherlink.com 1.10,2013-03-14 01:31:00,
2013-03-13 22:16:00,25.2,16.0,30.25,West,259,6.0,-999.0,68,-99.99,,,0.00,weatherlink.com 1.10,2013-03-14 02:16:00,
2013-03-13 22:46:00,25.1,17.0,30.25,West,259,4.0,-999.0,70,-99.99,,,0.00,weatherlink.com 1.10,2013-03-14 02:46:00,
2013-03-13 23:01:00,25.1,17.0,30.25,West,261,4.0,-999.0,71,-99.99,,,0.00,weatherlink.com 1.10,2013-03-14 03:01:00,
2013-03-13 23:31:00,25.4,17.0,30.26,WSW,257,5.0,-999.0,71,-99.99,,,0.00,weatherlink.com 1.10,2013-03-14 03:31:00,
2013-03-13 23:46:00,25.5,17.0,30.25,WSW,257,4.0,-999.0,71,-99.99,,,0.00,weatherlink.com 1.10,2013-03-14 03:46:00,